Location: El Chorro
(10.0985°N, 67.3542°W)
Time: 19:05:58
(UTC+00:00)

Ariane H10-3 - Pass Details

Date: 15 November 2025
Orbit: 306 x 27053 km, 6.7° (Epoch: 06 December)

Event Time Altitude Azimuth Distance (km) Brightness Sun altitude
Rises 22:46:25 0° 259° (W) 2,077 6.9 -10.8°
Reaches altitude 10° 22:47:46 10° 250° (WSW) 1,423 5.5 -11.1°
Maximum altitude 22:50:19 44° 174° (S) 850 2.8 -11.7°
Drops below altitude 10° 22:58:03 10° 103° (ESE) 4,253 5.8 -13.5°
Enters shadow 22:58:35 - 103° (ESE) 4,502 5.9 -13.6°
